Location: Berlin
(52.5170°N, 13.4000°E)
Time: 16:36:57
(UTC+02:00)

ISS - Visible Passes

Search period start: 21 September 2018 00:00
Search period end: 01 October 2018 00:00
Orbit: 403 x 408 km, 51.6° (Epoch: 21 September)

Date Brightness Start Highest point End Pass type
(mag) Time Alt. Az. Time Alt. Az. Time Alt. Az.
22 Sep -1.5 20:28:15 10° S 20:28:51 12° SSE 20:28:51 12° SSE visible
23 Sep -1.8 21:11:07 10° SW 21:12:20 19° SSW 21:12:20 19° SSW visible
24 Sep -2.5 20:19:43 10° SSW 20:22:25 23° SSE 20:22:54 22° SE visible
24 Sep -0.9 21:55:17 10° WSW 21:55:36 12° WSW 21:55:36 12° WSW visible
25 Sep -1.9 19:28:38 10° S 19:30:44 16° SE 19:32:50 10° ESE visible
25 Sep -3.0 21:03:30 10° WSW 21:06:00 41° SSW 21:06:00 41° SSW visible
26 Sep -3.1 20:11:50 10° SW 20:14:55 37° SSE 20:16:18 25° ESE visible
26 Sep -1.3 21:47:56 10° W 21:48:59 19° W 21:48:59 19° W visible
27 Sep -3.8 20:56:03 10° WSW 20:59:09 66° SSW 20:59:09 66° SSW visible
28 Sep -3.6 20:04:13 10° WSW 20:07:28 56° SSE 20:09:17 23° E visible
28 Sep -1.5 21:40:34 10° W 21:41:57 23° W 21:41:57 23° W visible
29 Sep -4.0 20:48:38 10° W 20:51:57 78° S 20:52:00 77° SSE visible
30 Sep -3.8 19:56:43 10° WSW 20:00:01 72° S 20:02:01 22° E visible
30 Sep -1.6 21:33:10 10° W 21:34:41 24° W 21:34:41 24° W visible
